• In Schweiz
  • Länderverzeichnis
  • Für 7 Tage
  • Wassertemperatur
  • Satellitenkarten
  • Wetterkarte
  • Widgets
  • user-avatar
    Anmelden

    Stündliche Wetter Serhii

    Heute, 25 April, Mittwoch

    Zeit Temperatur Niederschläge Wind Luftdruck Luftfeuchtigkeit
    00:00 +9°C° 0 mm 1 m/S 678 mmHg 90%
    01:00 +9°C° 0 mm 1 m/S 678 mmHg 91%
    02:00 +8°C° 0 mm 1 m/S 678 mmHg 91%
    03:00 +8°C° 0 mm 1 m/S 678 mmHg 91%
    04:00 +8°C° 0 mm 1 m/S 678 mmHg 91%
    05:00 +8°C° 0 mm 1 m/S 678 mmHg 91%
    06:00 +10°C° 0 mm 1 m/S 678 mmHg 86%
    07:00 +10°C° 0 mm 2 m/S 679 mmHg 81%
    08:00 +13°C° 0 mm 2 m/S 679 mmHg 76%
    09:00 +15°C° 0 mm 2 m/S 679 mmHg 69%
    10:00 +16°C° 0 mm 3 m/S 680 mmHg 62%
    11:00 +18°C° 0 mm 3 m/S 680 mmHg 54%
    12:00 +19°C° 0 mm 3 m/S 680 mmHg 51%
    13:00 +19°C° 0 mm 3 m/S 679 mmHg 48%
    14:00 +20°C° 0 mm 4 m/S 679 mmHg 45%
    15:00 +20°C° 0 mm 4 m/S 679 mmHg 48%
    16:00 +19°C° 0 mm 4 m/S 678 mmHg 51%
    17:00 +19°C° 0 mm 4 m/S 678 mmHg 54%
    18:00 +17°C° 0 mm 3 m/S 677 mmHg 62%
    19:00 +14°C° 0 mm 3 m/S 677 mmHg 70%
    20:00 +13°C° 0 mm 2 m/S 677 mmHg 78%
    21:00 +12°C° 0 mm 2 m/S 677 mmHg 79%
    22:00 +12°C° 0 mm 2 m/S 677 mmHg 79%
    23:00 +11°C° 0 mm 3 m/S 677 mmHg 80%

    Morgen, 26 April, Donnerstag

    Zeit Temperatur Niederschläge Wind Luftdruck Luftfeuchtigkeit
    00:00 +11°C° 0 mm 3 m/S 677 mmHg 80%
    01:00 +11°C° 0 mm 3 m/S 677 mmHg 81%
    02:00 +11°C° 0 mm 3 m/S 677 mmHg 81%
    03:00 +12°C° 0 mm 2 m/S 677 mmHg 83%
    04:00 +10°C° 0 mm 2 m/S 677 mmHg 85%
    05:00 +10°C° 0 mm 2 m/S 677 mmHg 87%
    06:00 +13°C° 0 mm 2 m/S 677 mmHg 81%
    07:00 +14°C° 0 mm 2 m/S 678 mmHg 75%
    08:00 +16°C° 0 mm 1 m/S 679 mmHg 69%
    09:00 +18°C° 0,2 mm 1 m/S 679 mmHg 64%
    10:00 +20°C° 0,2 mm 1 m/S 679 mmHg 58%
    11:00 +21°C° 0,2 mm 1 m/S 679 mmHg 53%
    12:00 +20°C° 0,7 mm 2 m/S 679 mmHg 53%
    13:00 +20°C° 0,7 mm 2 m/S 678 mmHg 54%
    14:00 +20°C° 0,7 mm 2 m/S 678 mmHg 55%
    15:00 +19°C° 1 mm 2 m/S 678 mmHg 59%
    16:00 +18°C° 1 mm 2 m/S 677 mmHg 64%
    17:00 +17°C° 1 mm 2 m/S 677 mmHg 69%
    18:00 +15°C° 0,5 mm 2 m/S 677 mmHg 77%
    19:00 +13°C° 0,5 mm 2 m/S 677 mmHg 84%
    20:00 +10°C° 0,5 mm 2 m/S 677 mmHg 91%
    21:00 +11°C° 0 mm 1 m/S 677 mmHg 92%
    22:00 +10°C° 0 mm 1 m/S 677 mmHg 93%
    23:00 +10°C° 0 mm 1 m/S 677 mmHg 94%

    übermorgen, 27 April, Freitag

    Zeit Temperatur Niederschläge Wind Luftdruck Luftfeuchtigkeit
    00:00 +10°C° 0,1 mm 1 m/S 677 mmHg 94%
    01:00 +9°C° 0,1 mm 1 m/S 677 mmHg 94%
    02:00 +9°C° 0,1 mm 1 m/S 677 mmHg 94%
    03:00 +9°C° 0,1 mm 1 m/S 678 mmHg 94%
    04:00 +8°C° 0,1 mm 2 m/S 678 mmHg 95%
    05:00 +7°C° 0,1 mm 2 m/S 678 mmHg 95%
    06:00 +7°C° 0,1 mm 2 m/S 678 mmHg 93%
    07:00 +8°C° 0,1 mm 2 m/S 679 mmHg 91%
    08:00 +8°C° 0,1 mm 2 m/S 679 mmHg 89%
    09:00 +9°C° 0,1 mm 2 m/S 680 mmHg 82%
    10:00 +10°C° 0,1 mm 2 m/S 680 mmHg 75%
    11:00 +12°C° 0,1 mm 2 m/S 680 mmHg 68%
    12:00 +13°C° 0 mm 2 m/S 681 mmHg 63%
    13:00 +14°C° 0 mm 2 m/S 681 mmHg 58%
    14:00 +14°C° 0 mm 2 m/S 681 mmHg 53%
    15:00 +14°C° 0 mm 2 m/S 681 mmHg 53%
    16:00 +14°C° 0 mm 2 m/S 681 mmHg 53%
    17:00 +14°C° 0 mm 2 m/S 681 mmHg 53%
    18:00 +12°C° 0 mm 1 m/S 680 mmHg 61%
    19:00 +10°C° 0 mm 1 m/S 680 mmHg 69%
    20:00 +7°C° 0 mm 0 m/S 680 mmHg 77%
    21:00 +7°C° 0 mm 1 m/S 680 mmHg 79%
    22:00 +7°C° 0 mm 1 m/S 681 mmHg 81%
    23:00 +7°C° 0 mm 1 m/S 681 mmHg 82%

    28 April, Samstag

    Zeit Temperatur Niederschläge Wind Luftdruck Luftfeuchtigkeit
    00:00 +6°C° 0 mm 1 m/S 681 mmHg 84%
    01:00 +6°C° 0 mm 1 m/S 681 mmHg 85%
    02:00 +6°C° 0 mm 1 m/S 681 mmHg 87%
    03:00 +5°C° 0 mm 1 m/S 681 mmHg 87%
    04:00 +5°C° 0 mm 1 m/S 681 mmHg 87%
    05:00 +5°C° 0 mm 1 m/S 680 mmHg 88%
    06:00 +7°C° 0 mm 2 m/S 681 mmHg 79%
    07:00 +9°C° 0 mm 2 m/S 681 mmHg 71%
    08:00 +12°C° 0 mm 2 m/S 682 mmHg 63%
    09:00 +15°C° 0 mm 2 m/S 682 mmHg 58%
    10:00 +17°C° 0 mm 2 m/S 683 mmHg 52%
    11:00 +19°C° 0 mm 3 m/S 683 mmHg 47%
    12:00 +20°C° 0 mm 3 m/S 683 mmHg 46%
    13:00 +21°C° 0 mm 3 m/S 683 mmHg 45%
    14:00 +21°C° 0 mm 3 m/S 683 mmHg 44%
    15:00 +21°C° 0 mm 3 m/S 682 mmHg 46%
    16:00 +21°C° 0 mm 3 m/S 682 mmHg 49%
    17:00 +20°C° 0 mm 3 m/S 682 mmHg 51%
    18:00 +18°C° 0 mm 2 m/S 681 mmHg 61%
    19:00 +16°C° 0 mm 2 m/S 681 mmHg 70%
    20:00 +13°C° 0 mm 2 m/S 681 mmHg 79%
    21:00 +13°C° 0 mm 2 m/S 681 mmHg 79%
    22:00 +12°C° 0 mm 2 m/S 681 mmHg 80%
    23:00 +12°C° 0 mm 2 m/S 681 mmHg 80%

    29 April, Sonntag

    Zeit Temperatur Niederschläge Wind Luftdruck Luftfeuchtigkeit
    00:00 +10°C° 0 mm 2 m/S 681 mmHg 81%
    01:00 +11°C° 0 mm 1 m/S 680 mmHg 82%
    02:00 +11°C° 0 mm 1 m/S 680 mmHg 83%
    03:00 +10°C° 0 mm 1 m/S 680 mmHg 85%
    04:00 +10°C° 0 mm 1 m/S 680 mmHg 86%
    05:00 +10°C° 0 mm 1 m/S 680 mmHg 87%
    06:00 +12°C° 0 mm 1 m/S 681 mmHg 80%
    07:00 +14°C° 0 mm 1 m/S 681 mmHg 72%
    08:00 +16°C° 0 mm 1 m/S 682 mmHg 64%
    09:00 +18°C° 0 mm 2 m/S 682 mmHg 58%
    10:00 +20°C° 0 mm 2 m/S 682 mmHg 51%
    11:00 +21°C° 0 mm 2 m/S 682 mmHg 45%
    12:00 +22°C° 0 mm 3 m/S 682 mmHg 43%
    13:00 +22°C° 0 mm 3 m/S 682 mmHg 41%
    14:00 +24°C° 0 mm 3 m/S 682 mmHg 39%
    15:00 +22°C° 0 mm 3 m/S 681 mmHg 41%
    16:00 +21°C° 0 mm 3 m/S 681 mmHg 44%
    17:00 +20°C° 0 mm 3 m/S 680 mmHg 47%
    18:00 +18°C° 0 mm 3 m/S 680 mmHg 54%
    19:00 +16°C° 0 mm 2 m/S 679 mmHg 61%
    20:00 +14°C° 0 mm 2 m/S 679 mmHg 68%
    21:00 +13°C° 0 mm 2 m/S 679 mmHg 69%
    22:00 +12°C° 0 mm 2 m/S 679 mmHg 70%
    23:00 +12°C° 0 mm 2 m/S 679 mmHg 71%

    30 April, Montag

    Zeit Temperatur Niederschläge Wind Luftdruck Luftfeuchtigkeit
    00:00 +10°C° 0 mm 2 m/S 679 mmHg 70%
    01:00 +11°C° 0 mm 1 m/S 678 mmHg 69%
    02:00 +10°C° 0 mm 1 m/S 678 mmHg 68%
    03:00 +10°C° 0 mm 1 m/S 678 mmHg 68%
    04:00 +9°C° 0 mm 1 m/S 678 mmHg 67%
    05:00 +9°C° 0 mm 1 m/S 678 mmHg 67%
    06:00 +11°C° 0 mm 1 m/S 678 mmHg 61%
    07:00 +14°C° 0 mm 1 m/S 679 mmHg 55%
    08:00 +16°C° 0 mm 1 m/S 679 mmHg 50%
    09:00 +18°C° 0 mm 2 m/S 680 mmHg 46%
    10:00 +20°C° 0 mm 2 m/S 680 mmHg 42%
    11:00 +21°C° 0 mm 2 m/S 680 mmHg 37%
    12:00 +22°C° 0 mm 3 m/S 680 mmHg 36%
    13:00 +22°C° 0 mm 3 m/S 680 mmHg 35%
    14:00 +24°C° 0 mm 3 m/S 679 mmHg 34%
    15:00 +22°C° 0 mm 3 m/S 679 mmHg 36%
    16:00 +21°C° 0 mm 3 m/S 679 mmHg 38%
    17:00 +21°C° 0 mm 3 m/S 678 mmHg 40%
    18:00 +18°C° 0 mm 3 m/S 678 mmHg 48%
    19:00 +16°C° 0 mm 2 m/S 677 mmHg 55%
    20:00 +14°C° 0 mm 2 m/S 677 mmHg 63%
    21:00 +13°C° 0 mm 2 m/S 677 mmHg 63%
    22:00 +12°C° 0 mm 2 m/S 677 mmHg 63%
    23:00 +12°C° 0 mm 2 m/S 677 mmHg 63%
    Mehr zeigen